TimeEST,TemperatureF,Dew PointF,Humidity,Sea Level PressureIn,VisibilityMPH,Wind Direction,Wind SpeedMPH,Gust SpeedMPH,PrecipitationIn,Events,Conditions,WindDirDegrees,DateUTC
12:14 AM,19.4,13.8,79,29.87,10.0,North,23.0,31.1,N/A,Snow,Light Snow,350,2011-12-28 05:14:00
12:35 AM,19.6,14.7,81,29.87,10.0,North,18.4,29.9,N/A,Snow,Light Snow,350,2011-12-28 05:35:00
12:54 AM,19.0,14.2,81,29.88,10.0,NNW,18.4,29.9,N/A,Snow,Light Snow,340,2011-12-28 05:54:00
1:14 AM,18.5,13.3,80,29.89,10.0,NNW,19.6,28.8,N/A,Snow,Light Snow,330,2011-12-28 06:14:00
1:35 AM,18.3,13.3,81,29.90,10.0,NNW,17.3,27.6,N/A,Snow,Light Snow,340,2011-12-28 06:35:00
1:54 AM,18.1,11.5,75,29.90,10.0,North,18.4,27.6,N/A,,Mostly Cloudy,350,2011-12-28 06:54:00
2:14 AM,17.8,12.9,81,29.91,10.0,NNW,21.9,28.8,N/A,,Overcast,340,2011-12-28 07:14:00
2:34 AM,17.6,11.7,78,29.92,10.0,North,15.0,25.3,N/A,,Overcast,350,2011-12-28 07:34:00
2:54 AM,17.2,10.6,75,29.92,10.0,North,17.3,25.3,N/A,,Mostly Cloudy,350,2011-12-28 07:54:00
3:14 AM,16.7,10.2,76,29.94,10.0,NNW,15.0,25.3,N/A,,Mostly Cloudy,340,2011-12-28 08:14:00
3:34 AM,16.7,11.1,79,29.94,10.0,North,17.3,26.5,N/A,,Overcast,360,2011-12-28 08:34:00
3:54 AM,16.7,11.1,79,29.95,10.0,North,13.8,25.3,N/A,,Overcast,350,2011-12-28 08:54:00
4:14 AM,16.7,11.3,79,29.95,10.0,North,12.7,20.7,N/A,,Overcast,350,2011-12-28 09:14:00
4:34 AM,16.5,10.4,77,29.96,10.0,North,12.7,19.6,N/A,,Overcast,360,2011-12-28 09:34:00
4:55 AM,16.3,9.3,74,29.96,10.0,North,16.1,-,N/A,,Overcast,360,2011-12-28 09:55:00
5:14 AM,16.0,9.9,77,29.97,10.0,North,12.7,-,N/A,Snow,Light Snow,350,2011-12-28 10:14:00
5:34 AM,16.2,10.4,78,29.97,10.0,North,13.8,21.9,N/A,,Overcast,10,2011-12-28 10:34:00
5:55 AM,15.4,9.9,79,29.97,10.0,North,11.5,18.4,N/A,,Overcast,360,2011-12-28 10:55:00
6:14 AM,15.3,9.1,77,29.98,10.0,North,12.7,20.7,N/A,,Overcast,10,2011-12-28 11:14:00
6:34 AM,14.9,8.8,77,29.99,10.0,North,11.5,16.1,N/A,,Overcast,10,2011-12-28 11:34:00
6:55 AM,14.9,8.4,76,30.00,10.0,North,11.5,-,N/A,,Overcast,10,2011-12-28 11:55:00
7:14 AM,14.9,9.1,78,30.00,10.0,North,9.2,-,N/A,,Overcast,350,2011-12-28 12:14:00
7:34 AM,14.9,9.1,78,30.00,10.0,North,11.5,-,N/A,,Overcast,360,2011-12-28 12:34:00
7:54 AM,15.4,8.6,74,30.00,10.0,North,10.4,16.1,N/A,,Overcast,350,2011-12-28 12:54:00
8:14 AM,14.9,7.0,71,30.00,10.0,NNW,8.1,-,N/A,,Mostly Cloudy,340,2011-12-28 13:14:00
8:34 AM,15.3,9.0,76,30.00,10.0,NNW,10.4,16.1,N/A,Snow,Light Snow,340,2011-12-28 13:34:00
8:54 AM,14.9,8.4,76,30.02,10.0,North,12.7,16.1,N/A,,Overcast,360,2011-12-28 13:54:00
9:15 AM,15.3,8.2,74,30.02,10.0,North,10.4,-,N/A,,Mostly Cloudy,10,2011-12-28 14:15:00
9:34 AM,14.9,7.5,73,30.03,10.0,North,8.1,-,N/A,,Mostly Cloudy,360,2011-12-28 14:34:00
9:54 AM,15.4,7.9,72,30.03,10.0,North,8.1,-,N/A,,Mostly Cloudy,350,2011-12-28 14:54:00
10:15 AM,16.0,8.6,73,30.04,10.0,North,8.1,-,N/A,,Mostly Cloudy,360,2011-12-28 15:15:00
10:34 AM,16.2,8.2,71,30.04,10.0,North,6.9,-,N/A,,Mostly Cloudy,360,2011-12-28 15:34:00
10:54 AM,15.6,7.9,72,30.04,10.0,NNW,5.8,-,N/A,,Mostly Cloudy,340,2011-12-28 15:54:00
11:14 AM,16.0,8.1,71,30.03,10.0,North,8.1,-,N/A,,Mostly Cloudy,10,2011-12-28 16:14:00
11:34 AM,15.6,7.7,71,30.03,10.0,NNW,6.9,-,N/A,,Mostly Cloudy,330,2011-12-28 16:34:00
11:54 AM,16.3,8.6,72,30.02,10.0,North,5.8,-,N/A,,Mostly Cloudy,360,2011-12-28 16:54:00
12:15 PM,15.6,7.7,71,30.02,10.0,NW,5.8,-,N/A,,Mostly Cloudy,310,2011-12-28 17:15:00
12:34 PM,16.0,8.4,72,30.02,10.0,NNW,3.5,-,N/A,,Mostly Cloudy,340,2011-12-28 17:34:00
1:14 PM,16.3,7.2,67,30.01,10.0,North,4.6,-,N/A,,Mostly Cloudy,350,2011-12-28 18:14:00
1:34 PM,17.6,9.1,69,30.01,10.0,NW,4.6,-,N/A,,Mostly Cloudy,320,2011-12-28 18:34:00
1:55 PM,18.0,10.4,72,30.01,10.0,WNW,4.6,-,N/A,Snow,Light Snow,300,2011-12-28 18:55:00
2:14 PM,17.6,11.1,76,30.00,7.0,NW,3.5,-,N/A,Snow,Light Snow,310,2011-12-28 19:14:00
2:34 PM,17.1,11.3,78,30.00,2.5,Calm,Calm,-,N/A,Snow,Light Snow,0,2011-12-28 19:34:00
2:55 PM,17.4,11.5,78,30.00,4.0,Calm,Calm,-,N/A,Snow,Light Snow,0,2011-12-28 19:55:00
3:14 PM,18.1,10.9,73,30.00,7.0,WSW,10.4,-,N/A,Snow,Light Snow,250,2011-12-28 20:14:00
3:34 PM,17.2,8.8,69,30.00,10.0,Calm,Calm,-,N/A,,Overcast,0,2011-12-28 20:34:00
3:55 PM,17.8,9.5,70,30.00,10.0,South,3.5,-,N/A,,Overcast,170,2011-12-28 20:55:00
4:34 PM,17.4,9.3,71,30.00,10.0,SSE,4.6,-,N/A,,Overcast,150,2011-12-28 21:34:00
5:14 PM,17.6,9.3,70,30.00,10.0,ESE,4.6,-,N/A,,Overcast,110,2011-12-28 22:14:00
5:35 PM,18.0,9.7,70,30.00,10.0,SE,3.5,-,N/A,,Overcast,130,2011-12-28 22:35:00
5:55 PM,17.6,10.0,72,29.99,10.0,SE,4.6,-,N/A,,Overcast,130,2011-12-28 22:55:00
6:14 PM,17.6,10.0,72,29.99,10.0,SE,4.6,-,N/A,,Overcast,130,2011-12-28 23:14:00
6:35 PM,17.6,10.0,72,29.98,10.0,ESE,4.6,-,N/A,,Overcast,120,2011-12-28 23:35:00
6:54 PM,17.6,10.8,75,29.97,10.0,SE,6.9,-,N/A,,Overcast,130,2011-12-28 23:54:00
7:14 PM,17.6,10.2,73,29.97,10.0,SE,6.9,-,N/A,,Overcast,130,2011-12-29 00:14:00
7:35 PM,17.6,10.4,73,29.97,10.0,SE,4.6,-,N/A,,Overcast,140,2011-12-29 00:35:00
7:54 PM,17.6,10.8,75,29.96,10.0,SE,5.8,-,N/A,,Overcast,140,2011-12-29 00:54:00
8:35 PM,18.0,10.6,73,29.94,10.0,SE,6.9,-,N/A,,Overcast,140,2011-12-29 01:35:00
8:54 PM,18.0,10.4,72,29.93,10.0,SE,8.1,-,N/A,,Overcast,130,2011-12-29 01:54:00
9:14 PM,18.1,10.9,73,29.93,10.0,SE,8.1,-,N/A,,Overcast,130,2011-12-29 02:14:00
9:34 PM,18.1,10.9,73,29.93,10.0,SE,6.9,-,N/A,,Overcast,140,2011-12-29 02:34:00
9:54 PM,18.5,11.3,73,29.93,10.0,SE,8.1,-,N/A,,Overcast,130,2011-12-29 02:54:00
10:15 PM,18.5,11.3,73,29.92,10.0,SE,8.1,-,N/A,,Overcast,130,2011-12-29 03:15:00
10:35 PM,18.5,11.3,73,29.91,10.0,ESE,9.2,-,N/A,,Overcast,120,2011-12-29 03:35:00
10:54 PM,18.9,11.8,74,29.91,10.0,SE,8.1,-,N/A,,Overcast,140,2011-12-29 03:54:00
11:14 PM,18.9,12.0,75,29.92,10.0,SE,6.9,-,N/A,,Overcast,140,2011-12-29 04:14:00
11:34 PM,18.9,12.0,75,29.91,10.0,SE,6.9,-,N/A,,Overcast,130,2011-12-29 04:34:00
11:55 PM,19.0,11.8,74,29.90,10.0,ESE,8.1,-,N/A,,Overcast,120,2011-12-29 04:55:00